OneWeb SL0145

operational
NORAD ID: 47260 Int'l Des: 2020-100 Owner: ONEWEB Country: UK Constellation: oneweb
LEOCIRCULARPOLARONEWEB_TYPE

About OneWeb SL0145

Description loading...

Live Position

Loading 3D Globe...

Upcoming Passes

Altitude History

Altitude vs Time

uPlot chart will show altitude changes over time

Two-Line Element Set

1 47260U 20100C 25305.29595551 -.00000240 00000-0 -70174-3 0 9998
2 47260 87.8970 35.9094 0001926 109.3711 250.7626 13.12444311234832
Epoch: Nov 1, 2025 • Age: 22 hours

Current Status

Altitude 1218.1 km
Velocity 7.25 km/s
Sub-Earth Point 35.93°N, 83.11°W
Launch Date Dec 18, 2020
Age 4.8 years
Type internet

Technical Details

Classification Payload
Mass 148.00 kg
Dry Mass 140.00 kg
Total Mass 148.00 kg
Length 1.30 m
Diameter 1.00 m
Span 5.00 m
Shape Trapezoid+2 pan
Manufacturer ONEWUS
Bus Type ARROW
Phase Status In Orbit
Owner/State ONEWEB/UK

Large Constellations

Loading constellations...